Fremont, MI

10:33 AM EST on February 19, 2017 (GMT -0500)
Fremont

Weather History for KFFX - April, 2013

Change the Weather History Date:

Tuesday, April 2, 2013

  Actual Average (KMKG) Record (KMKG)
Temperature  
Mean Temperature 26 °F -  
Max Temperature 37 °F 47 °F 78 °F (2010)
Min Temperature 16 °F 30 °F 16 °F (1926)
Degree Days  
Heating Degree Days 38    
Moisture  
Dew Point 14 °F    
Average Humidity 58    
Maximum Humidity 96    
Minimum Humidity 30    
Precipitation  
Precipitation 0.00 in - - ()
Sea Level Pressure  
Sea Level Pressure 30.16 in    
Wind  
Wind Speed 8 mph (West)    
Max Wind Speed 20 mph    
Max Gust Speed 25 mph    
Visibility 10 miles    
Events Snow    
Averages and records for this station are not official NWS values.
T = Trace of Precipitation, MM = Missing Value Source: NWS Daily Summary

Daily Weather History Graph

Daily Weather History Graph

Search for Another Location

Airport or City:

Trip Planner

Search our weather history database for the weather conditions in past years. The results will help you decide how hot, cold, wet, or windy it might be!

Date:

Astronomy

Apr. 02, 2013 Rise Set
Actual Time 7:23 AM EDT 8:12 PM EDT
Civil Twilight 6:54 AM EDT 8:41 PM EDT
Nautical Twilight 6:20 AM EDT 9:15 PM EDT
Astronomical Twilight 5:44 AM EDT 9:51 PM EDT
Moon 2:23 AM EDT (4/2) 12:06 PM EDT (4/2)
Length of Visible Light 13h 46m
Length of Day
12h 48m
Waning Gibbous, 56% of the Moon is Illuminated
Apr 2
Waning Gibbous
Apr 3
Last Quarter
Apr 10
New
Apr 18
First Quarter
Apr 25
Full

Hourly Weather History & Observations

Time (EDT) Temp. Windchill Dew Point Humidity Pressure Visibility Wind Dir Wind Speed Gust Speed Precip Events Conditions
12:14 AM 26.6 °F 16.8 °F 25.5 °F 96% 30.09 in 1.5 mi WSW 10.4 mph - N/A Snow Light Snow
12:34 AM 26.6 °F 18.2 °F 24.1 °F 90% 30.09 in 7.0 mi West 8.1 mph - N/A Snow Light Snow
12:55 AM 24.3 °F 17.3 °F 21.6 °F 89% 30.10 in 10.0 mi WNW 5.8 mph - N/A   Scattered Clouds
1:14 AM 23.2 °F 16.0 °F 20.8 °F 91% 30.10 in 10.0 mi WNW 5.8 mph - N/A   Clear
1:35 AM 23.0 °F 14.7 °F 17.1 °F 78% 30.11 in 10.0 mi NNW 6.9 mph - N/A   Mostly Cloudy
2:14 AM 23.2 °F 18.7 °F 13.1 °F 65% 30.11 in 10.0 mi NW 3.5 mph - N/A   Scattered Clouds
2:35 AM 23.5 °F - 12.4 °F 62% 30.11 in 10.0 mi Calm Calm - N/A   Clear
2:54 AM 20.8 °F - 12.4 °F 70% 30.11 in 10.0 mi Calm Calm - N/A   Clear
3:15 AM 20.5 °F - 13.5 °F 74% 30.11 in 10.0 mi Calm Calm - N/A   Clear
3:34 AM 18.9 °F 12.1 °F 13.6 °F 80% 30.11 in 10.0 mi South 4.6 mph - N/A   Scattered Clouds
3:54 AM 18.9 °F 13.7 °F 14.9 °F 85% 30.11 in 10.0 mi SSW 3.5 mph - N/A   Scattered Clouds
4:15 AM 16.3 °F - 13.6 °F 89% 30.10 in 10.0 mi Calm Calm - N/A   Scattered Clouds
4:34 AM 19.0 °F 13.9 °F 16.0 °F 88% 30.10 in 10.0 mi SSW 3.5 mph - N/A   Scattered Clouds
4:55 AM 16.5 °F - 14.4 °F 91% 30.10 in 10.0 mi Calm Calm - N/A   Scattered Clouds
5:14 AM 16.2 °F - 13.5 °F 89% 30.11 in 10.0 mi Calm Calm - N/A   Mostly Cloudy
5:35 AM 18.0 °F 11.1 °F 14.7 °F 87% 30.11 in 10.0 mi SW 4.6 mph - N/A   Mostly Cloudy
5:54 AM 21.9 °F 14.5 °F 14.5 °F 73% 30.11 in 10.0 mi SW 5.8 mph - N/A   Mostly Cloudy
6:15 AM 24.4 °F 17.5 °F 14.5 °F 66% 30.11 in 10.0 mi WSW 5.8 mph - N/A   Mostly Cloudy
6:34 AM 23.4 °F - 14.2 °F 68% 30.11 in 10.0 mi Calm Calm - N/A   Mostly Cloudy
6:55 AM 23.2 °F 18.7 °F 13.6 °F 67% 30.12 in 10.0 mi SW 3.5 mph - N/A   Mostly Cloudy
7:14 AM 23.2 °F 18.7 °F 13.8 °F 67% 30.12 in 10.0 mi SW 3.5 mph - N/A   Mostly Cloudy
7:35 AM 23.9 °F 18.0 °F 14.4 °F 67% 30.12 in 10.0 mi WSW 4.6 mph - N/A   Mostly Cloudy
7:55 AM 26.4 °F 19.8 °F 17.4 °F 69% 30.13 in 10.0 mi WSW 5.8 mph - N/A   Overcast
8:14 AM 26.6 °F 19.1 °F 16.5 °F 66% 30.14 in 10.0 mi WSW 6.9 mph - N/A   Scattered Clouds
8:35 AM 27.5 °F 19.3 °F 17.6 °F 66% 30.15 in 10.0 mi WSW 8.1 mph - N/A   Clear
8:54 AM 28.9 °F 22.8 °F 18.3 °F 65% 30.15 in 10.0 mi WSW 5.8 mph - N/A   Clear
9:15 AM 30.2 °F 22.6 °F 18.7 °F 62% 30.15 in 10.0 mi West 8.1 mph - N/A   Clear
9:34 AM 31.1 °F 23.1 °F 18.5 °F 60% 30.16 in 10.0 mi West 9.2 mph - N/A   Clear
9:55 AM 32.0 °F 22.5 °F 16.5 °F 53% 30.16 in 10.0 mi West 12.7 mph 17.3 mph N/A   Scattered Clouds
10:34 AM 32.5 °F 23.2 °F 14.2 °F 47% 30.17 in 10.0 mi West 12.7 mph 20.7 mph N/A   Mostly Cloudy
10:55 AM 33.6 °F 25.0 °F 16.2 °F 49% 30.17 in 10.0 mi West 11.5 mph 20.7 mph N/A   Scattered Clouds
11:15 AM 33.3 °F 22.8 °F 12.9 °F 43% 30.17 in 10.0 mi West 16.1 mph 19.6 mph N/A   Mostly Cloudy
11:35 AM 34.3 °F 23.5 °F 12.4 °F 40% 30.17 in 10.0 mi West 18.4 mph 23.0 mph N/A   Mostly Cloudy
11:54 AM 35.4 °F 26.8 °F 12.4 °F 39% 30.18 in 10.0 mi West 12.7 mph 21.9 mph N/A   Scattered Clouds
12:15 PM 35.2 °F 24.4 °F 9.5 °F 34% 30.18 in 10.0 mi WNW 19.6 mph 25.3 mph N/A   Scattered Clouds
12:34 PM 36.3 °F 27.5 °F 10.6 °F 35% 30.18 in 10.0 mi West 13.8 mph 21.9 mph N/A   Scattered Clouds
12:55 PM 36.5 °F 26.0 °F 9.9 °F 33% 30.18 in 10.0 mi West 19.6 mph 23.0 mph N/A   Scattered Clouds
1:15 PM 36.5 °F 26.7 °F 9.3 °F 32% 30.18 in 10.0 mi WNW 17.3 mph 23.0 mph N/A   Scattered Clouds
1:34 PM 36.1 °F 26.5 °F 9.0 °F 32% 30.17 in 10.0 mi NW 16.1 mph 21.9 mph N/A   Scattered Clouds
1:55 PM 36.5 °F 26.0 °F 7.5 °F 30% 30.17 in 10.0 mi WNW 19.6 mph 25.3 mph N/A   Scattered Clouds
2:14 PM 36.3 °F 26.4 °F 8.6 °F 32% 30.18 in 10.0 mi WNW 17.3 mph 24.2 mph N/A   Scattered Clouds
2:35 PM 36.3 °F 28.0 °F 8.4 °F 31% 30.18 in 10.0 mi West 12.7 mph 24.2 mph N/A   Scattered Clouds
2:54 PM 37.4 °F 27.8 °F 8.6 °F 30% 30.17 in 10.0 mi WNW 17.3 mph - N/A   Scattered Clouds
3:14 PM 37.2 °F 27.6 °F 9.0 °F 31% 30.17 in 10.0 mi WNW 17.3 mph 25.3 mph N/A   Scattered Clouds
3:35 PM 36.5 °F 27.0 °F 8.4 °F 31% 30.17 in 10.0 mi West 16.1 mph 20.7 mph N/A   Scattered Clouds
3:54 PM 36.0 °F 26.7 °F 8.8 °F 32% 30.17 in 10.0 mi West 15.0 mph 19.6 mph N/A   Scattered Clouds
4:15 PM 37.2 °F 27.9 °F 10.2 °F 33% 30.17 in 10.0 mi WNW 16.1 mph 23.0 mph N/A   Mostly Cloudy
4:35 PM 36.1 °F 27.3 °F 10.4 °F 35% 30.18 in 10.0 mi West 13.8 mph 20.7 mph N/A   Overcast
4:54 PM 36.0 °F 25.6 °F 11.7 °F 37% 30.18 in 10.0 mi West 18.4 mph 21.9 mph N/A   Overcast
5:14 PM 34.9 °F 24.9 °F 12.2 °F 39% 30.19 in 10.0 mi WNW 16.1 mph 21.9 mph N/A   Mostly Cloudy
5:34 PM 33.6 °F 25.0 °F 12.7 °F 42% 30.19 in 10.0 mi WNW 11.5 mph 19.6 mph N/A   Mostly Cloudy
5:48 PM 35.4 °F 27.3 °F 12.9 °F 40% 30.20 in 10.0 mi West 11.5 mph 17.3 mph N/A   Mostly Cloudy
6:20 PM 33.1 °F 23.9 °F 12.9 °F 43% 30.20 in 10.0 mi West 12.7 mph - N/A   Mostly Cloudy
6:34 PM 34.0 °F 25.5 °F 13.1 °F 42% 30.20 in 10.0 mi WNW 11.5 mph - N/A   Mostly Cloudy
6:55 PM 33.8 °F 25.8 °F 11.8 °F 40% 30.21 in 10.0 mi WNW 10.4 mph - N/A   Scattered Clouds
7:14 PM 32.0 °F 24.2 °F 12.7 °F 45% 30.21 in 10.0 mi West 9.2 mph - N/A   Clear
7:35 PM 31.6 °F 26.0 °F 15.1 °F 50% 30.22 in 10.0 mi NW 5.8 mph - N/A   Clear
7:55 PM 30.9 °F 24.3 °F 14.9 °F 52% 30.22 in 10.0 mi NW 6.9 mph - N/A   Clear
8:14 PM 29.5 °F 24.5 °F 15.1 °F 55% 30.22 in 10.0 mi WNW 4.6 mph - N/A   Clear
8:35 PM 29.3 °F 25.6 °F 14.9 °F 55% 30.22 in 10.0 mi West 3.5 mph - N/A   Clear
8:54 PM 28.2 °F - 15.3 °F 58% 30.22 in 10.0 mi Calm Calm - N/A   Clear
9:15 PM 28.2 °F - 15.3 °F 58% 30.23 in 10.0 mi Calm Calm - N/A   Clear
9:34 PM 27.3 °F - 15.3 °F 61% 30.23 in 10.0 mi Calm Calm - N/A   Clear
9:54 PM 26.6 °F 22.6 °F 15.6 °F 63% 30.23 in 10.0 mi South 3.5 mph - N/A   Clear
10:15 PM 26.2 °F 22.1 °F 16.7 °F 67% 30.24 in 10.0 mi South 3.5 mph - N/A   Clear
10:34 PM 24.4 °F 20.1 °F 16.2 °F 71% 30.24 in 10.0 mi South 3.5 mph - N/A   Clear
10:55 PM 26.8 °F 22.8 °F 16.0 °F 64% 30.24 in 10.0 mi SSW 3.5 mph - N/A   Clear
11:14 PM 25.0 °F 20.7 °F 16.5 °F 70% 30.24 in 10.0 mi SSW 3.5 mph - N/A   Clear
11:35 PM 25.2 °F 20.9 °F 16.7 °F 70% 30.24 in 10.0 mi SSW 3.5 mph - N/A   Clear
11:54 PM 26.2 °F 20.7 °F 16.9 °F 68% 30.24 in 10.0 mi SSW 4.6 mph - N/A   Clear